Location: Melbourne
(37.8120°S, 144.9677°E)
Time: 23:53:40
(UTC+10:00)

ISS - Visible Passes

Search period start: 01 August 2014 00:00
Search period end: 11 August 2014 00:00
Orbit: 411 x 419 km, 51.6° (Epoch: 01 August)

Date Brightness Start Highest point End Pass type
(mag) Time Alt. Az. Time Alt. Az. Time Alt. Az.
07 Aug -0.1 06:30:04 10° N 06:32:14 16° NE 06:34:24 10° E visible
09 Aug -2.2 06:27:37 10° NNW 06:30:53 48° NE 06:34:11 10° ESE visible
10 Aug -1.1 05:39:14 10° N 05:42:05 26° NE 05:44:58 10° ESE visible
